Torna al catalogo

ARIANE 1 DEB

AttivoSSO
NORAD 39103·DEBRIS·🇫🇷 France

Lanciato Feb 22, 1986 da Guiana Space Centre

Loading…

Prossimi Passaggi (prossime 24 ore)

TLE

In scadenzaSource: Space-Track

Epoca: Sep 11, 2026, 04:24 UTC

1 39103U 86019VR  26254.18384468  .00000599  00000-0  18598-3 0  9998
2 39103  98.2090 234.9563 0022767 165.2797 256.3629 14.44255061695082

Traccia ARIANE 1 DEB in tempo reale con AllMySat

Download on the App Store